QPF
0.01 0.01 0.02 0.02 0.03 0.05 0.05 0.06 0.06 0.05 0.04 0.04 0.04 0.04 0.05 0.06 0.08 0.06 0.06 0.05 0.03 0.02 0.02 0.02 0.01 0.01 0.02 0.03 0.03 0.05 0.04 0.03 0.02 0.02 0.02 0.02 0.02 0.02
0.02 0.01 0.01 0.02 0.02 0.04 0.04 0.06 0.08 0.07 0.05 0.05 0.05 0.05 0.05 0.05 0.07 0.06 0.06 0.05 0.03 0.02 0.02 0.02 0.02 0.01 0.01 0.02 0.02 0.04 0.04 0.04 0.03 0.02 0.02 0.02 0.01 0.01
0.02 0.02 0.02 0.02 0.02 0.03 0.04 0.05 0.05 0.05 0.04 0.04 0.05 0.05 0.06 0.06 0.07 0.06 0.05 0.04 0.02 0.03 0.03 0.02 0.02 0.02 0.01 0.01 0.01 0.01 0.01 0.01 0.01 0.01 0.01 0.01 0.01 0.01
0.03 0.04 0.04 0.04 0.04 0.04 0.04 0.04 0.04 0.05 0.04 0.04 0.06 0.06 0.05 0.05 0.04 0.05 0.05 0.03 0.02 0.02 0.02 0.02 0.02 0.01 0.01 0.01 0.01 0.01 0.01 0.01 0.01 0.01 0.01 0.01 0.01 0.01
0.06 0.06 0.05 0.04 0.04 0.04 0.04 0.04 0.05 0.06 0.06 0.05 0.06 0.07 0.06 0.05 0.04 0.05 0.04 0.03 0.02 0.02 0.02 0.01 0.02 0.01 0.02 0.02 0.01 0.01 0.01 0.01 0.00 0.00 0.01 0.01 0.01 0.01
0.03 0.03 0.02 0.02 0.02 0.02 0.02 0.03 0.04 0.05 0.05 0.05 0.06 0.07 0.06 0.05 0.04 0.05 0.04 0.04 0.03 0.02 0.02 0.01 0.01 0.01 0.01 0.01 0.01 0.01 0.01 0.01 0.01 0.01 0.01 0.01 0.01 0.01
0.01 0.01 0.01 0.01 0.02 0.03 0.03 0.04 0.05 0.05 0.05 0.04 0.05 0.05 0.05 0.05 0.04 0.04 0.03 0.03 0.02 0.01 0.01 0.00 0.00 0.00 0.00 0.01 0.01 0.01 0.00 0.00 0.01 0.01 0.02 0.02 0.01 0.01
0.01 0.01 0.01 0.00 0.01 0.02 0.03 0.05 0.06 0.06 0.06 0.05 0.04 0.05 0.04 0.04 0.04 0.03 0.03 0.03 0.02 0.01 0.00 0.00 0.00 0.00 0.00 0.00 0.01 0.01 0.01 0.01 0.01 0.01 0.02 0.01 0.02 0.01
0.01 0.01 0.01 0.00 0.01 0.01 0.01 0.02 0.04 0.06 0.06 0.06 0.05 0.04 0.05 0.06 0.05 0.04 0.02 0.02 0.02 0.01 0.01 0.00 0.00 0.00 0.00 0.00 0.00 0.01 0.01 0.02 0.03 0.02 0.02 0.02 0.02 0.02
0.02 0.02 0.03 0.02 0.02 0.02 0.03 0.04 0.03 0.04 0.05 0.05 0.04 0.03 0.03 0.03 0.03 0.03 0.02 0.02 0.01 0.01 0.01 0.01 0.00 0.00 0.00 0.00 0.01 0.01 0.02 0.03 0.04 0.05 0.03 0.04 0.04 0.03
0.01 0.02 0.02 0.02 0.02 0.03 0.03 0.03 0.03 0.03 0.04 0.05 0.04 0.03 0.03 0.02 0.02 0.03 0.02 0.02 0.02 0.01 0.01 0.01 0.01 0.00 0.00 0.00 0.01 0.01 0.02 0.03 0.04 0.07 0.08 0.07 0.07 0.06
0.01 0.01 0.02 0.02 0.02 0.03 0.03 0.02 0.01 0.01 0.02 0.02 0.02 0.02 0.02 0.02 0.01 0.01 0.01 0.01 0.01 0.01 0.01 0.01 0.01 0.00 0.00 0.00 0.00 0.01 0.02 0.03 0.04 0.06 0.09 0.11 0.11 0.09
0.02 0.02 0.01 0.01 0.02 0.03 0.03 0.02 0.02 0.02 0.02 0.02 0.01 0.01 0.02 0.02 0.02 0.02 0.02 0.01 0.01 0.00 0.01 0.01 0.01 0.01 0.01 0.00 0.00 0.01 0.01 0.03 0.04 0.05 0.08 0.11 0.12 0.10
0.01 0.02 0.02 0.02 0.02 0.02 0.02 0.02 0.03 0.04 0.04 0.03 0.02 0.02 0.02 0.01 0.01 0.01 0.01 0.02 0.02 0.01 0.01 0.01 0.01 0.02 0.02 0.02 0.02 0.01 0.01 0.02 0.03 0.04 0.05 0.07 0.08 0.09
0.02 0.02 0.03 0.03 0.02 0.01 0.01 0.02 0.02 0.03 0.04 0.03 0.02 0.02 0.02 0.03 0.03 0.02 0.03 0.04 0.03 0.03 0.02 0.01 0.01 0.01 0.01 0.01 0.01 0.00 0.01 0.02 0.02 0.03 0.04 0.04 0.05 0.06
0.04 0.04 0.04 0.02 0.02 0.02 0.02 0.02 0.02 0.03 0.04 0.04 0.03 0.02 0.03 0.03 0.04 0.03 0.03 0.03 0.03 0.02 0.02 0.02 0.02 0.02 0.01 0.01 0.01 0.01 0.00 0.01 0.01 0.02 0.03 0.04 0.03 0.03
0.06 0.05 0.04 0.03 0.02 0.02 0.02 0.03 0.04 0.04 0.03 0.03 0.03 0.03 0.03 0.03 0.03 0.04 0.04 0.03 0.02 0.01 0.02 0.02 0.03 0.03 0.03 0.02 0.02 0.01 0.01 0.01 0.01 0.03 0.04 0.04 0.03 0.02
0.05 0.03 0.03 0.03 0.02 0.02 0.03 0.03 0.04 0.03 0.03 0.04 0.04 0.04 0.04 0.04 0.04 0.04 0.04 0.03 0.02 0.01 0.01 0.01 0.01 0.02 0.02 0.02 0.02 0.02 0.01 0.02 0.02 0.03 0.05 0.05 0.04 0.04
0.04 0.02 0.02 0.03 0.03 0.03 0.03 0.02 0.02 0.02 0.03 0.03 0.03 0.04 0.04 0.04 0.05 0.05 0.05 0.04 0.02 0.02 0.02 0.02 0.02 0.02 0.02 0.02 0.01 0.02 0.02 0.03 0.02 0.02 0.03 0.04 0.04 0.03
0.03 0.03 0.03 0.03 0.03 0.03 0.03 0.02 0.02 0.02 0.03 0.03 0.03 0.03 0.04 0.05 0.04 0.04 0.03 0.03 0.03 0.03 0.03 0.03 0.03 0.02 0.02 0.02 0.02 0.03 0.03 0.03 0.02 0.02 0.02 0.02 0.03 0.03
0.03 0.03 0.03 0.03 0.02 0.02 0.02 0.02 0.02 0.02 0.02 0.02 0.02 0.02 0.03 0.04 0.04 0.03 0.03 0.03 0.04 0.04 0.03 0.03 0.03 0.03 0.04 0.04 0.04 0.03 0.02 0.02 0.01 0.02 0.02 0.02 0.03 0.03
0.03 0.03 0.03 0.03 0.02 0.01 0.01 0.02 0.02 0.02 0.02 0.02 0.02 0.02 0.02 0.02 0.02 0.02 0.03 0.03 0.04 0.04 0.03 0.03 0.03 0.05 0.06 0.06 0.04 0.03 0.03 0.02 0.02 0.02 0.02 0.03 0.03 0.02
0.04 0.04 0.04 0.03 0.03 0.03 0.03 0.03 0.02 0.02 0.02 0.02 0.02 0.02 0.02 0.03 0.03 0.03 0.03 0.03 0.04 0.05 0.05 0.05 0.05 0.06 0.07 0.06 0.05 0.04 0.04 0.04 0.04 0.04 0.03 0.03 0.03 0.02
MSLP
1017.56 1017.58 1017.62 1017.65 1017.65 1017.58 1017.43 1017.20 1016.88 1016.48 1016.03 1015.53 1015.02 1014.50 1013.98 1013.48 1012.99 1012.54 1012.13 1011.77 1011.46 1011.23 1011.06 1010.96 1010.92 1010.93 1010.97 1011.04 1011.13 1011.22 1011.33 1011.44 1011.55 1011.67 1011.79 1011.89 1011.99 1012.06
1017.07 1017.00 1016.96 1016.93 1016.90 1016.84 1016.72 1016.55 1016.31 1016.00 1015.63 1015.21 1014.75 1014.27 1013.77 1013.26 1012.75 1012.27 1011.82 1011.41 1011.07 1010.80 1010.61 1010.49 1010.44 1010.44 1010.48 1010.56 1010.65 1010.76 1010.87 1011.00 1011.12 1011.26 1011.39 1011.52 1011.63 1011.73
1016.53 1016.37 1016.25 1016.17 1016.10 1016.03 1015.93 1015.80 1015.63 1015.40 1015.11 1014.78 1014.39 1013.96 1013.49 1013.00 1012.50 1012.01 1011.54 1011.11 1010.74 1010.43 1010.21 1010.06 1009.97 1009.95 1009.97 1010.02 1010.10 1010.20 1010.31 1010.43 1010.57 1010.71 1010.86 1011.00 1011.14 1011.27
1016.00 1015.78 1015.60 1015.47 1015.36 1015.27 1015.19 1015.08 1014.95 1014.78 1014.57 1014.30 1013.99 1013.62 1013.20 1012.76 1012.28 1011.80 1011.33 1010.89 1010.49 1010.15 1009.89 1009.69 1009.56 1009.48 1009.45 1009.46 1009.50 1009.56 1009.65 1009.75 1009.88 1010.02 1010.18 1010.35 1010.52 1010.68
1015.52 1015.28 1015.08 1014.91 1014.79 1014.68 1014.59 1014.49 1014.38 1014.24 1014.07 1013.85 1013.59 1013.28 1012.93 1012.53 1012.10 1011.65 1011.19 1010.75 1010.34 1009.98 1009.67 1009.41 1009.21 1009.06 1008.96 1008.90 1008.87 1008.88 1008.91 1008.98 1009.08 1009.22 1009.38 1009.57 1009.77 1009.98
1015.14 1014.92 1014.72 1014.56 1014.43 1014.31 1014.20 1014.09 1013.97 1013.83 1013.67 1013.47 1013.25 1012.98 1012.67 1012.33 1011.95 1011.54 1011.12 1010.69 1010.28 1009.89 1009.53 1009.22 1008.94 1008.71 1008.52 1008.36 1008.25 1008.17 1008.14 1008.15 1008.22 1008.34 1008.50 1008.71 1008.95 1009.20
1014.87 1014.71 1014.56 1014.42 1014.29 1014.16 1014.03 1013.88 1013.72 1013.55 1013.37 1013.17 1012.94 1012.70 1012.43 1012.13 1011.80 1011.44 1011.06 1010.66 1010.25 1009.84 1009.45 1009.07 1008.72 1008.40 1008.11 1007.86 1007.65 1007.49 1007.38 1007.33 1007.35 1007.44 1007.60 1007.82 1008.08 1008.38
1014.73 1014.64 1014.55 1014.46 1014.34 1014.20 1014.03 1013.83 1013.62 1013.39 1013.15 1012.91 1012.67 1012.42 1012.17 1011.91 1011.62 1011.30 1010.96 1010.59 1010.20 1009.79 1009.37 1008.95 1008.53 1008.13 1007.75 1007.40 1007.10 1006.85 1006.66 1006.55 1006.53 1006.58 1006.73 1006.95 1007.23 1007.56
1014.68 1014.68 1014.66 1014.60 1014.50 1014.34 1014.13 1013.88 1013.59 1013.28 1012.97 1012.67 1012.39 1012.12 1011.87 1011.62 1011.37 1011.10 1010.79 1010.45 1010.08 1009.67 1009.24 1008.78 1008.32 1007.85 1007.40 1006.98 1006.60 1006.28 1006.03 1005.86 1005.79 1005.81 1005.93 1006.14 1006.43 1006.78
1014.70 1014.77 1014.80 1014.78 1014.68 1014.50 1014.25 1013.93 1013.56 1013.17 1012.79 1012.42 1012.08 1011.79 1011.52 1011.28 1011.04 1010.79 1010.52 1010.21 1009.86 1009.46 1009.02 1008.54 1008.05 1007.55 1007.06 1006.59 1006.16 1005.79 1005.49 1005.27 1005.16 1005.15 1005.24 1005.43 1005.71 1006.05
1014.76 1014.86 1014.92 1014.91 1014.81 1014.61 1014.32 1013.94 1013.50 1013.04 1012.58 1012.15 1011.77 1011.43 1011.14 1010.89 1010.66 1010.42 1010.17 1009.87 1009.53 1009.14 1008.70 1008.23 1007.72 1007.21 1006.70 1006.21 1005.76 1005.36 1005.04 1004.80 1004.65 1004.60 1004.65 1004.81 1005.05 1005.37
1014.81 1014.92 1014.98 1014.97 1014.86 1014.64 1014.31 1013.89 1013.40 1012.89 1012.38 1011.90 1011.47 1011.10 1010.78 1010.52 1010.27 1010.03 1009.77 1009.48 1009.14 1008.75 1008.31 1007.84 1007.34 1006.83 1006.33 1005.85 1005.40 1005.00 1004.67 1004.41 1004.24 1004.15 1004.17 1004.27 1004.46 1004.73
1014.83 1014.93 1014.98 1014.95 1014.82 1014.58 1014.23 1013.79 1013.28 1012.74 1012.20 1011.70 1011.24 1010.84 1010.50 1010.21 1009.94 1009.68 1009.40 1009.09 1008.74 1008.34 1007.90 1007.43 1006.94 1006.45 1005.97 1005.51 1005.08 1004.70 1004.38 1004.11 1003.91 1003.79 1003.75 1003.79 1003.91 1004.11
1014.83 1014.89 1014.92 1014.87 1014.73 1014.48 1014.13 1013.69 1013.19 1012.65 1012.11 1011.60 1011.13 1010.72 1010.36 1010.04 1009.74 1009.44 1009.12 1008.78 1008.40 1007.98 1007.53 1007.05 1006.58 1006.10 1005.65 1005.22 1004.82 1004.47 1004.15 1003.88 1003.66 1003.49 1003.39 1003.35 1003.38 1003.48
1014.81 1014.84 1014.84 1014.78 1014.64 1014.40 1014.07 1013.65 1013.17 1012.66 1012.14 1011.65 1011.18 1010.76 1010.39 1010.03 1009.69 1009.35 1008.99 1008.60 1008.17 1007.72 1007.25 1006.77 1006.29 1005.83 1005.40 1005.00 1004.63 1004.30 1003.99 1003.71 1003.45 1003.23 1003.05 1002.91 1002.83 1002.82
1014.79 1014.80 1014.79 1014.73 1014.60 1014.38 1014.08 1013.70 1013.26 1012.79 1012.31 1011.84 1011.39 1010.97 1010.58 1010.20 1009.82 1009.43 1009.01 1008.57 1008.10 1007.60 1007.10 1006.61 1006.13 1005.68 1005.26 1004.87 1004.52 1004.19 1003.88 1003.58 1003.28 1002.99 1002.72 1002.47 1002.27 1002.13
1014.79 1014.80 1014.79 1014.74 1014.63 1014.44 1014.18 1013.84 1013.46 1013.03 1012.59 1012.15 1011.72 1011.30 1010.90 1010.49 1010.08 1009.64 1009.18 1008.69 1008.17 1007.64 1007.11 1006.59 1006.10 1005.64 1005.22 1004.84 1004.49 1004.15 1003.81 1003.47 1003.11 1002.75 1002.38 1002.02 1001.69 1001.42
1014.82 1014.85 1014.86 1014.83 1014.74 1014.59 1014.36 1014.07 1013.72 1013.34 1012.93 1012.52 1012.10 1011.69 1011.28 1010.86 1010.41 1009.95 1009.45 1008.92 1008.36 1007.80 1007.24 1006.69 1006.18 1005.71 1005.27 1004.87 1004.49 1004.12 1003.75 1003.35 1002.92 1002.47 1002.00 1001.53 1001.08 1000.68
1014.88 1014.94 1014.98 1014.97 1014.91 1014.78 1014.58 1014.31 1013.99 1013.64 1013.26 1012.86 1012.46 1012.05 1011.63 1011.20 1010.74 1010.26 1009.74 1009.18 1008.61 1008.02 1007.44 1006.87 1006.33 1005.83 1005.36 1004.92 1004.50 1004.08 1003.64 1003.18 1002.68 1002.14 1001.58 1001.01 1000.45 999.95
1014.96 1015.06 1015.12 1015.13 1015.08 1014.96 1014.77 1014.51 1014.21 1013.87 1013.50 1013.11 1012.72 1012.31 1011.90 1011.46 1011.00 1010.51 1009.98 1009.42 1008.83 1008.24 1007.63 1007.04 1006.47 1005.93 1005.42 1004.93 1004.45 1003.96 1003.46 1002.92 1002.34 1001.73 1001.09 1000.44 999.81 999.23
1015.04 1015.15 1015.23 1015.24 1015.19 1015.07 1014.88 1014.62 1014.32 1013.97 1013.61 1013.22 1012.83 1012.43 1012.01 1011.58 1011.13 1010.64 1010.12 1009.56 1008.97 1008.37 1007.75 1007.14 1006.53 1005.94 1005.38 1004.82 1004.27 1003.71 1003.13 1002.53 1001.88 1001.21 1000.52 999.82 999.15 998.53
1015.08 1015.20 1015.27 1015.28 1015.21 1015.08 1014.87 1014.60 1014.29 1013.94 1013.56 1013.17 1012.78 1012.38 1011.97 1011.54 1011.10 1010.62 1010.10 1009.55 1008.96 1008.35 1007.72 1007.07 1006.43 1005.79 1005.16 1004.54 1003.92 1003.29 1002.64 1001.98 1001.29 1000.58 999.87 999.16 998.49 997.88
1015.06 1015.17 1015.22 1015.21 1015.12 1014.96 1014.73 1014.45 1014.12 1013.75 1013.37 1012.98 1012.58 1012.18 1011.77 1011.34 1010.90 1010.42 1009.90 1009.35 1008.75 1008.12 1007.47 1006.79 1006.11 1005.42 1004.73 1004.05 1003.36 1002.68 1001.98 1001.28 1000.57 999.86 999.15 998.47 997.83 997.27
Thickness
5745 5743 5741 5740 5738 5736 5732 5727 5718 5708 5704 5706 5706 5706 5705 5702 5700 5697 5694 5692 5689 5687 5685 5683 5681 5679 5677 5676 5674 5673 5671 5669 5667 5665 5663 5662 5660 5659
5744 5742 5739 5738 5736 5734 5731 5727 5723 5715 5705 5704 5703 5703 5702 5699 5696 5693 5691 5688 5686 5683 5680 5678 5676 5674 5672 5671 5669 5667 5665 5663 5661 5659 5656 5655 5653 5651
5742 5740 5737 5736 5733 5731 5728 5725 5720 5715 5707 5704 5703 5701 5698 5695 5692 5689 5687 5684 5681 5678 5676 5674 5671 5669 5667 5665 5664 5662 5659 5657 5654 5652 5650 5648 5646 5644
5739 5737 5735 5734 5730 5728 5725 5721 5718 5714 5708 5701 5699 5697 5694 5691 5688 5685 5682 5679 5676 5673 5671 5669 5667 5664 5662 5660 5658 5656 5653 5651 5648 5646 5644 5642 5640 5637
5738 5735 5733 5730 5727 5724 5722 5718 5715 5712 5707 5701 5696 5693 5690 5687 5683 5680 5677 5674 5671 5668 5666 5664 5662 5660 5657 5655 5653 5650 5648 5645 5643 5640 5638 5636 5633 5632
5737 5734 5732 5729 5726 5723 5719 5715 5712 5707 5703 5698 5693 5689 5685 5683 5679 5674 5670 5668 5666 5664 5661 5659 5657 5655 5653 5651 5648 5646 5643 5640 5637 5635 5633 5630 5628 5626
5733 5732 5730 5728 5725 5722 5718 5713 5710 5705 5699 5694 5689 5685 5681 5677 5673 5670 5666 5663 5661 5659 5656 5654 5651 5649 5647 5645 5643 5641 5639 5636 5633 5630 5628 5625 5623 5621
5730 5728 5726 5724 5721 5719 5716 5713 5710 5704 5697 5692 5687 5683 5679 5676 5672 5668 5663 5658 5654 5655 5651 5648 5646 5643 5642 5641 5639 5637 5635 5633 5630 5626 5623 5621 5618 5616
5728 5725 5723 5721 5718 5715 5712 5709 5706 5703 5700 5694 5687 5683 5679 5677 5672 5666 5662 5657 5654 5653 5647 5643 5642 5639 5638 5636 5635 5633 5630 5628 5625 5622 5619 5616 5613 5611
5726 5723 5719 5716 5715 5711 5707 5703 5701 5698 5696 5692 5689 5685 5681 5677 5673 5668 5662 5656 5652 5649 5645 5639 5637 5635 5635 5633 5630 5628 5625 5622 5620 5617 5614 5611 5608 5606
5723 5720 5717 5714 5712 5708 5703 5698 5695 5694 5692 5689 5686 5683 5679 5675 5670 5663 5657 5650 5645 5643 5642 5637 5634 5630 5629 5628 5626 5623 5620 5617 5615 5612 5609 5606 5603 5600
5718 5716 5714 5711 5708 5705 5700 5695 5690 5688 5686 5683 5680 5677 5673 5670 5666 5661 5656 5648 5642 5639 5639 5633 5629 5625 5621 5623 5621 5618 5615 5612 5610 5607 5604 5601 5598 5594
5713 5710 5709 5707 5703 5700 5696 5692 5689 5685 5681 5677 5673 5670 5667 5664 5661 5657 5654 5648 5641 5638 5637 5631 5626 5621 5617 5615 5614 5613 5610 5607 5605 5602 5599 5596 5593 5589
5709 5707 5704 5701 5698 5695 5691 5689 5685 5681 5676 5671 5667 5665 5662 5659 5657 5653 5650 5646 5643 5639 5636 5630 5623 5618 5613 5608 5607 5607 5605 5602 5599 5597 5594 5591 5587 5584
5704 5702 5699 5695 5692 5689 5687 5684 5679 5675 5671 5666 5663 5661 5660 5658 5654 5649 5645 5641 5637 5634 5631 5627 5622 5617 5611 5606 5603 5600 5598 5597 5594 5591 5588 5585 5582 5579
5697 5694 5691 5688 5686 5684 5681 5678 5674 5671 5667 5663 5661 5658 5656 5652 5648 5644 5639 5634 5629 5627 5625 5622 5618 5614 5608 5605 5600 5597 5595 5592 5591 5588 5585 5582 5579 5576
5689 5686 5682 5679 5676 5675 5673 5671 5669 5665 5662 5659 5655 5651 5648 5645 5642 5639 5633 5628 5623 5620 5618 5616 5613 5609 5605 5601 5596 5594 5591 5589 5588 5585 5581 5578 5577 5575
5682 5678 5676 5673 5671 5669 5666 5664 5662 5660 5657 5654 5649 5646 5642 5639 5635 5632 5627 5623 5619 5616 5612 5609 5604 5600 5597 5596 5595 5591 5588 5586 5584 5581 5578 5575 5573 5573
5675 5673 5671 5669 5667 5664 5661 5659 5656 5654 5651 5647 5644 5641 5637 5633 5630 5626 5622 5618 5614 5611 5608 5604 5599 5594 5590 5589 5591 5590 5586 5582 5579 5576 5573 5571 5570 5570
5670 5669 5667 5665 5662 5659 5657 5654 5651 5648 5644 5641 5638 5635 5631 5628 5624 5620 5617 5613 5609 5606 5602 5599 5596 5592 5590 5588 5586 5585 5584 5580 5575 5571 5569 5568 5566 5566
5665 5664 5662 5660 5658 5655 5652 5650 5646 5642 5639 5635 5632 5629 5626 5622 5619 5616 5612 5609 5604 5601 5598 5596 5596 5593 5589 5584 5580 5579 5579 5577 5575 5570 5567 5562 5560 5559
5659 5658 5657 5655 5652 5649 5646 5643 5639 5636 5633 5630 5627 5623 5620 5617 5614 5611 5607 5604 5600 5597 5595 5594 5591 5587 5582 5579 5576 5574 5573 5572 5570 5567 5565 5563 5558 5555
5653 5651 5649 5648 5646 5643 5639 5636 5633 5630 5627 5624 5621 5618 5615 5612 5609 5606 5603 5599 5596 5592 5590 5587 5584 5581 5578 5575 5572 5570 5569 5566 5563 5560 5559 5559 5558 5557